Tracking 18852 objects as of 23-Nov-2017
HD Live streaming from Space Station
objects crossing your sky now

COSMOS 1479

Track COSMOS 1479 now!
10-day predictions
COSMOS 1479 is classified as:


NORAD ID: 14177
Int'l Code: 1983-069G
Perigee: 1,469.0 km
Apogee: 1,507.3 km
Inclination: 74.0 °
Period: 115.6 minutes
Semi major axis: 7859 km
RCS: 0.7305 m2 (medium)
Launch date: July 6, 1983
Source: Commonwealth of Independent States (former USSR) (CIS)
Launch site: PLESETSK MISSILE AND SPACE COMPLEX (PKMTR)
aabbcc
Your satellite tracking list
Your tracking list is empty




NASA's NSSDC Master Catalog

Two Line Element Set (TLE):
1 14177U 83069G   17326.34555314 -.00000018  00000-0 -11511-4 0  9999
2 14177  74.0248 291.6241 0024401 268.4037 246.1313 12.46059250564204
Source of the keplerian elements: AFSPC